User: anonymous   Login
Location: ????
(55.5675°N, 37.6272°E)
Time: 19:11:27
(UTC+00:00)
Language:

H-2A R/B - Orbit

View from above orbital plane
View from above orbital plane
View from above satellite
View from above satellite

Ground track
Ground track

The orbit is defined by the following mean orbital elements,

1 28932U          26162.38575122 +.00000000 +00000-0 +27216-3 0 00008
2 28932  98.2553 317.6909 0049634 282.5768  76.9915 15.17987423    01
Epoch (UTC): 11 June 2026 09:15:28
Eccentricity: 0.0049634
inclination: 98.2553°
perigee height: 478 km
apogee height: 546 km
right ascension of ascending node: 317.6909°
argument of perigee: 282.5768°
revolutions per day: 15.17987423
mean anomaly at epoch: 76.9915°

The dashed part of the orbit path shows where the satellite is in the earth's shadow,  

DLR